Terminal Aerodrome Forecast
Issued by NWS

Home | Current Version | Previous Version | Text Only | Print | Product List | Glossary On
Versions: 1 2 3 4 5 6 7 8 9 10 11 12 13 14 15 16 17 18 19 20 21 22 23 24 25 26 27 28 29 30 31 32 33 34 35 36 37 38 39 40 41 42 43 44 45 46 47 48 49 50
000
FTUS41 KCTP 271735
TAFUNV
TAF
KUNV 271735Z 2718/2818 24005KT P6SM BKN060
     FM280600 22005KT 6SM -RA BR BKN030 OVC050
     FM280800 24005KT 4SM -RA OVC025
     FM281100 25004KT 2SM -RA BR OVC015=

USA.gov is the U.S. government's official web portal to all federal, state and local government web resources and services.